Terminal Aerodrome Forecast
Issued by NWS

Home | Current Version | Previous Version | Graphics & Text | Print | Product List | Glossary On
Versions: 1 2 3 4 5 6 7 8 9 10 11 12 13 14 15 16 17 18 19 20 21 22 23 24 25 26 27 28 29 30 31 32 33 34 35 36 37 38 39 40 41 42 43 44 45 46 47 48 49 50
000
FTUS43 KLOT 182300
TAFGYY
TAF
KGYY 182321Z 1900/1924 20008KT P6SM FEW035 FEW250
     FM190700 19006KT 6SM BR VCSH BKN035 BKN060
     FM190900 21008KT 5SM TSRA BR OVC025CB
     FM191200 21009KT 6SM BR SCT015 BKN035
     FM191700 22012G20KT P6SM VCSH BKN035 PROB30 1919/1923 4SM TSRA
      BKN025CB
     FM192300 24013G19KT P6SM BKN040=

USA.gov is the U.S. government's official web portal to all federal, state and local government web resources and services.